Lordsburg, NM

11:37 PM MDT on July 21, 2017 (GMT -0600)
Lordsburg

Weather History for KLSB - April, 2014

Change the Weather History Date:

Monday, April 7, 2014

  Actual Average Record
Temperature  
Mean Temperature 54 °F -  
Max Temperature 73 °F 76 °F 80 °F (2013)
Min Temperature 35 °F 38 °F 35 °F (2014)
Degree Days  
Heating Degree Days 11    
Growing Degree Days 4 (Base 50)    
Moisture  
Dew Point 14 °F    
Average Humidity 21    
Maximum Humidity 38    
Minimum Humidity 10    
Precipitation  
Precipitation 0.00 in - - ()
Sea Level Pressure  
Sea Level Pressure 30.12 in    
Wind  
Wind Speed 7 mph (West)    
Max Wind Speed 16 mph    
Max Gust Speed 25 mph    
Visibility 10 miles    
Events      
Averages and records for this station are not official NWS values.
T = Trace of Precipitation, MM = Missing Value Source: NWS Daily Summary

Daily Weather History Graph

Daily Weather History Graph

Search for Another Location

Airport or City:

Trip Planner

Search our weather history database for the weather conditions in past years. The results will help you decide how hot, cold, wet, or windy it might be!

Date:

Astronomy

Apr. 07, 2014 Rise Set
Actual Time 6:53 AM MDT 7:40 PM MDT
Civil Twilight 6:28 AM MDT 8:05 PM MDT
Nautical Twilight 5:58 AM MDT 8:36 PM MDT
Astronomical Twilight 5:27 AM MDT 9:06 PM MDT
Moon 12:59 PM MDT (4/7) 2:12 AM MDT (4/7)
Length of Visible Light 13h 37m
Length of Day
12h 46m
First Quarter, 54% of the Moon is Illuminated
Apr 7
First Quarter
Apr 15
Full
Apr 22
Last Quarter
Apr 29
New
May 6
First Quarter

Hourly Weather History & Observations

Time (MDT) Temp. Windchill Dew Point Humidity Pressure Visibility Wind Dir Wind Speed Gust Speed Precip Events Conditions
12:15 AM 51.8 °F - 19.4 °F 28% 30.01 in 10.0 mi West 12.7 mph - N/A   Clear
12:35 AM 51.8 °F - 19.4 °F 28% 30.02 in 10.0 mi West 10.4 mph - N/A   Clear
12:55 AM 50.0 °F - 19.4 °F 30% 30.02 in 10.0 mi WNW 9.2 mph - N/A   Clear
1:15 AM 48.2 °F - 17.6 °F 30% 30.03 in 10.0 mi NW 8.1 mph - N/A   Clear
1:35 AM 46.4 °F 44.3 °F 17.6 °F 32% 30.02 in 10.0 mi WNW 4.6 mph - N/A   Clear
1:55 AM 44.6 °F 43.1 °F 17.6 °F 34% 30.03 in 10.0 mi West 3.5 mph - N/A   Clear
2:15 AM 42.8 °F 40.1 °F 17.6 °F 36% 30.03 in 10.0 mi West 4.6 mph - N/A   Clear
2:35 AM 42.8 °F 38.0 °F 17.6 °F 36% 30.04 in 10.0 mi WSW 8.1 mph - N/A   Clear
2:55 AM 42.8 °F 38.6 °F 15.8 °F 34% 30.04 in 10.0 mi WSW 6.9 mph - N/A   Clear
3:15 AM 42.8 °F 37.5 °F 14.0 °F 31% 30.04 in 10.0 mi WSW 9.2 mph - N/A   Clear
3:35 AM 44.6 °F 40.7 °F 14.0 °F 29% 30.04 in 10.0 mi WSW 6.9 mph - N/A   Clear
3:55 AM 41.0 °F - 14.0 °F 33% 30.05 in 10.0 mi Calm Calm - N/A   Clear
4:15 AM 41.0 °F - 15.8 °F 36% 30.06 in 10.0 mi Calm Calm - N/A   Clear
4:35 AM 37.4 °F - 14.0 °F 38% 30.06 in 10.0 mi Calm Calm - N/A   Clear
4:55 AM 41.0 °F 38.0 °F 12.2 °F 31% 30.06 in 10.0 mi WSW 4.6 mph - N/A   Clear
5:15 AM 41.0 °F 37.1 °F 10.4 °F 29% 30.06 in 10.0 mi WSW 5.8 mph - N/A   Clear
5:35 AM 41.0 °F 35.8 °F 10.4 °F 29% 30.07 in 10.0 mi WSW 8.1 mph - N/A   Clear
6:15 AM 41.0 °F 34.3 °F 10.4 °F 29% 30.08 in 10.0 mi West 11.5 mph - N/A   Clear
6:35 AM 37.4 °F 34.9 °F 10.4 °F 33% 30.10 in 10.0 mi North 3.5 mph - N/A   Clear
6:55 AM 35.6 °F 32.8 °F 10.4 °F 35% 30.10 in 10.0 mi WNW 3.5 mph - N/A   Clear
7:15 AM 39.2 °F 35.0 °F 12.2 °F 33% 30.12 in 10.0 mi NNW 5.8 mph - N/A   Clear
7:35 AM 42.8 °F 38.6 °F 12.2 °F 29% 30.12 in 10.0 mi WNW 6.9 mph - N/A   Clear
7:55 AM 46.4 °F 42.9 °F 14.0 °F 27% 30.14 in 10.0 mi West 6.9 mph - N/A   Clear
8:15 AM 50.0 °F - 14.0 °F 24% 30.15 in 10.0 mi WNW 4.6 mph - N/A   Clear
8:35 AM 51.8 °F - 14.0 °F 22% 30.16 in 10.0 mi Calm Calm - N/A   Clear
8:55 AM 53.6 °F - 15.8 °F 22% 30.16 in 10.0 mi NW 3.5 mph - N/A   Clear
9:15 AM 55.4 °F - 17.6 °F 23% 30.16 in 10.0 mi NNW 4.6 mph - N/A   Clear
9:55 AM 59.0 °F - 19.4 °F 22% 30.16 in 10.0 mi WNW 5.8 mph - N/A   Clear
10:15 AM 59.0 °F - 19.4 °F 22% 30.17 in 10.0 mi NNW 5.8 mph - N/A   Clear
10:35 AM 59.0 °F - 19.4 °F 22% 30.17 in 10.0 mi West 6.9 mph - N/A   Clear
10:55 AM 60.8 °F - 17.6 °F 19% 30.18 in 10.0 mi West 9.2 mph - N/A   Clear
11:15 AM 62.6 °F - 17.6 °F 18% 30.19 in 10.0 mi NW 9.2 mph - N/A   Clear
11:35 AM 60.8 °F - 17.6 °F 19% 30.18 in 10.0 mi West 8.1 mph - N/A   Clear
11:55 AM 62.6 °F - 17.6 °F 18% 30.18 in 10.0 mi WNW 11.5 mph - N/A   Clear
12:15 PM 62.6 °F - 17.6 °F 18% 30.18 in 10.0 mi NNW 3.5 mph - N/A   Clear
12:35 PM 62.6 °F - 17.6 °F 18% 30.18 in 10.0 mi NNE 3.5 mph - N/A   Clear
12:55 PM 62.6 °F - 17.6 °F 18% 30.17 in 10.0 mi NNE 4.6 mph - N/A   Clear
1:15 PM 66.2 °F - 17.6 °F 15% 30.17 in 10.0 mi West 8.1 mph 17.3 mph N/A   Clear
1:35 PM 66.2 °F - 17.6 °F 15% 30.16 in 10.0 mi Calm Calm - N/A   Clear
1:55 PM 68.0 °F - 17.6 °F 15% 30.15 in 10.0 mi NW 9.2 mph - N/A   Clear
2:15 PM 68.0 °F - 15.8 °F 13% 30.15 in 10.0 mi NW 8.1 mph - N/A   Clear
2:35 PM 69.8 °F - 15.8 °F 13% 30.14 in 10.0 mi West 9.2 mph - N/A   Clear
2:55 PM 69.8 °F - 15.8 °F 13% 30.14 in 10.0 mi SW 4.6 mph - N/A   Clear
3:15 PM 69.8 °F - 15.8 °F 13% 30.13 in 10.0 mi WNW 8.1 mph 20.7 mph N/A   Clear
3:35 PM 71.6 °F - 15.8 °F 12% 30.12 in 10.0 mi West 12.7 mph 17.3 mph N/A   Clear
3:55 PM 71.6 °F - 14.0 °F 11% 30.12 in 10.0 mi West 12.7 mph 23.0 mph N/A   Clear
4:15 PM 71.6 °F - 14.0 °F 11% 30.11 in 10.0 mi West 5.8 mph 16.1 mph N/A   Clear
4:35 PM 73.4 °F - 14.0 °F 10% 30.10 in 10.0 mi WNW 15.0 mph - N/A   Clear
4:55 PM 73.4 °F - 12.2 °F 10% 30.11 in 10.0 mi West 16.1 mph 23.0 mph N/A   Clear
5:15 PM 73.4 °F - 12.2 °F 10% 30.11 in 10.0 mi WSW 16.1 mph 20.7 mph N/A   Clear
5:35 PM 73.4 °F - 12.2 °F 10% 30.11 in 10.0 mi West 15.0 mph 23.0 mph N/A   Clear
5:55 PM 71.6 °F - 12.2 °F 10% 30.12 in 10.0 mi WSW 11.5 mph 25.3 mph N/A   Clear
6:15 PM 71.6 °F - 14.0 °F 11% 30.12 in 10.0 mi West 16.1 mph 19.6 mph N/A   Clear
6:35 PM 71.6 °F - 12.2 °F 10% 30.12 in 10.0 mi West 13.8 mph 20.7 mph N/A   Clear
6:55 PM 71.6 °F - 12.2 °F 10% 30.13 in 10.0 mi West 13.8 mph 18.4 mph N/A   Clear
7:15 PM 69.8 °F - 12.2 °F 11% 30.13 in 10.0 mi West 15.0 mph 18.4 mph N/A   Clear
7:35 PM 68.0 °F - 12.2 °F 12% 30.13 in 10.0 mi West 10.4 mph - N/A   Clear
7:55 PM 66.2 °F - 12.2 °F 12% 30.14 in 10.0 mi WSW 6.9 mph - N/A   Clear
8:15 PM 62.6 °F - 12.2 °F 14% 30.15 in 10.0 mi WSW 6.9 mph - N/A   Clear
8:35 PM 62.6 °F - 12.2 °F 14% 30.15 in 10.0 mi WSW 6.9 mph - N/A   Clear
9:00 PM 60.8 °F - 12.2 °F 15% 30.16 in 10.0 mi SW 5.8 mph - N/A   Clear
9:15 PM 60.8 °F - 10.4 °F 14% 30.16 in 10.0 mi SW 5.8 mph - N/A   Clear
9:35 PM 55.4 °F - 10.4 °F 17% 30.17 in 10.0 mi Calm Calm - N/A   Clear
9:55 PM 59.0 °F - 10.4 °F 15% 30.18 in 10.0 mi North 3.5 mph - N/A   Clear
10:15 PM 53.6 °F - 10.4 °F 18% 30.19 in 10.0 mi Calm Calm - N/A   Clear
10:35 PM 51.8 °F - 10.4 °F 19% 30.19 in 10.0 mi Calm Calm - N/A   Clear
10:55 PM 53.6 °F - 12.2 °F 19% 30.19 in 10.0 mi Calm Calm - N/A   Clear
11:15 PM 51.8 °F - 10.4 °F 19% 30.20 in 10.0 mi Calm Calm - N/A   Clear
11:35 PM 50.0 °F - 10.4 °F 20% 30.20 in 10.0 mi SW 4.6 mph - N/A   Clear